THOR ABLESTAR DEB, 144

Orbit data source: Space-Track

THOR ABLESTAR DEB, 144 is space debris in LEO originally from a launch on Thu, 29 Jun 1961 UTC launched from the Air Force Eastern Test Range (AFETR). Debris objects in space refer to the collection of defunct objects orbiting the Earth. Examples of debris include non-operational satellites, rocket bodies, and fragments generated from explosions, collisions, or faulty payload assembly.

Loading next visibility...
Identifier
144, 1961-015AE
Orbit
LEO
Last TLE update
20 hours ago
Origin
Manufacturer
Unknown
Mission
Spacecraft
Bus & Motor
Unknown
Mass
Unknown
Launch date (UTC)
1961-06-29 (64 years ago)
Launch vehicle
Unknown
Launch site
Air Force Eastern Test Range (AFETR)
Object type
Payload
Rocket body
Debris
Shape & HBR
Unknown
Radar Cross Section
Small (<0.1 m²)

Expand to show TLE details & history

TLE from 20 hours ago
0 THOR ABLESTAR DEB
1 00144U 61015AE  25191.62949914  .00000118  00000-0  15471-3 0  9995
2 00144  66.4985 153.2231 0047679 225.5836 134.1334 13.91432720237126
Epoch: 2025-07-10T15:06Z
TLE epoch observation values (Epoch: 2025-07-10T15:06:28.725Z)
Latitude
-0.00006°
Longitude
-2.18964°
Altitude
949.997 km
Speed
7.365 km/s
True Right ascension
10h 12m 53s
True Declination
0° 00' 00"
Sunlit
Object was in daylight at epoch
Visualization orbit readout
Latitude
42.56845°
Longitude
152.37775°
Altitude
930.333 km
Speed
7.39 km/s
Apparent Right ascension
16h 18m 12s
Apparent Declination
14° 16' 51"
Sunlit
Object is in daylight
Visualization observer readout
Local Sidereal Time
23:01:18
Azimuth
287.787° WNW
Elevation
1.109°
Doppler factor
1
Orbital elements
Apogee altitude
956.848 km
Perigee altitude
887.235 km
Semi-major axis
7,300.179 km
Eccentricity
0.00477
Inclination
66.4985°
RAAN
153.2231°
Arg. of periapsis
225.5836°
True anomaly
Unknown
Mean anomaly
134.1334°
Eccentric anomaly
Unknown
Mean motion
3.47971 °/min
Orbital period
103.46 mins
BSTAR
0.00015471
Loading maneuver chart data...
Loading SW <> Apogee altitude chart data...

THOR ABLESTAR DEB Visibility forecast

Observer location: undefined°, undefined°

Span
Click to sort rows by Start time (UTC) header in descending order
Start Az.
Max El. time (UTC)
Max El. Az.
Max El.
End time (UTC)
End Az.
10 mins2025-07-11 22:16:22.747Z177.497° S2025-07-11 22:21:22.747Z110.837° ESE34.423°2025-07-11 22:26:22.747Z45.418° ENE
10 mins2025-07-12 00:03:22.747Z251.33° W2025-07-12 00:08:22.747Z319.299° NNW29.136°2025-07-12 00:13:22.747Z13.436° NNE
11 mins2025-07-12 07:19:22.747Z342.628° N2025-07-12 07:25:22.747Z65.121° ENE34.546°2025-07-12 07:30:22.747Z124.215° SE
8 mins2025-07-12 09:07:22.747Z301.707° NW2025-07-12 09:11:22.747Z247.485° WSW26.718°2025-07-12 09:15:22.747Z197.792° SSW
|